Flag for U.S.A. Weather past 2 weeks in West Covina, California, U.S.A.

Now
78 °F

Sunny.


Feels Like: 80 °F
Forecast: 64 / 88 °F
Wind: 3 mph from Southeast

Location: Fullerton Municipal Airport

Current Time: Jul 22, 2014 at 1:12:58 PM

Latest Report: Jul 22, 2014 at 9:53 AM


Visibility: 10 mi

Pressure: 30.04 "Hg

Humidity: 56%

Dew point: 61 °F

Location of West CovinaLocation

Historic Weather in West Covina — Graph

°F

West Covina temperature yesterday

Maximum temperature yesterday: 85 °F (at 1:53 PM)
Minimum temperature yesterday: 67 °F (at 3:53 AM)
Average temperature yesterday: 74 °F

Past Weeks' High & Low Weather Summary

 TemperatureHumidityPressure
High87 °F (Jul 9, 3:53 PM)85% (Jul 12, 4:53 AM)30.05 "Hg (Jul 12, 4:53 AM)
Low65 °F (Jul 18, 5:53 AM)37% (Jul 7, 1:53 PM)29.83 "Hg (Jul 7, 5:53 PM)
Average74 °F65%29.95 "Hg
* Reported Jul 7 9:53 AM — Jul 22 9:53 AM, West Covina, Weather by CustomWeather, © 2014

Note: Actual official high and low records may vary slightly from our data, if they occured in-between our weather recording intervals... More about our weather records

Advertising

West Covina weather history for previous 24 hours

 ConditionsComfort  
Time TempWeatherWind HumidityBarometerVisibility
9:53 AM
Jul 22
78 °FSunny.3 mph56%30.04 "Hg10 mi
8:53 AM73 °FSunny.No wind66%30.04 "Hg10 mi
7:53 AM70 °FSunny.3 mph76%30.04 "Hg10 mi
6:53 AM67 °FClear.No wind85%30.01 "Hg10 mi
5:53 AM66 °FClear.No wind84%30.01 "Hg10 mi
4:53 AM66 °FClear.No wind84%30.01 "Hg10 mi
3:53 AM67 °FClear.No wind81%30.01 "Hg10 mi
2:53 AM67 °FClear.No wind81%30.01 "Hg10 mi
1:53 AM68 °FClear.No wind78%30.00 "Hg10 mi
12:53 AM69 °FClear.No wind73%30.00 "Hg10 mi
11:53 PM
Jul 21
69 °FClear.No wind73%30.00 "Hg10 mi
10:53 PM70 °FClear.No wind71%30.01 "Hg10 mi
9:53 PM71 °FClear.No wind71%29.99 "Hg10 mi
8:53 PM72 °FSunny.3 mph68%29.97 "Hg10 mi
7:53 PM74 °FSunny.7 mph62%29.96 "Hg10 mi
6:53 PM78 °FSunny.9 mph54%29.96 "Hg10 mi
5:53 PM80 °FSunny.8 mph49%29.97 "Hg10 mi
4:53 PM82 °FSunny.8 mph46%29.98 "Hg10 mi
3:53 PM84 °FSunny.8 mph41%29.99 "Hg10 mi
2:53 PM84 °FSunny.7 mph43%30.00 "Hg10 mi
1:53 PM85 °FSunny.6 mph43%30.00 "Hg10 mi
Weather by CustomWeather, © 2014

See weather overviewHow to use our weather pages